Location: Miss�
(46.9484°N, 0.1922°W)
Time: 03:54:07
(UTC+00:00)

Cosmos 1354 Rocket - Pass Details

Date: 02 March 2021
Orbit: 765 x 782 km, 74.0° (Epoch: 17 April)

Event Time Altitude Azimuth Distance (km) Brightness Sun altitude
Rises 18:53:35 0° 340° (NNW) 3,252 7.6 -12.0°
Reaches altitude 10° 18:56:01 10° 345° (NNW) 2,319 6.7 -12.4°
Maximum altitude 19:01:12 56° 64° (ENE) 909 4.1 -13.3°
Drops below altitude 10° 19:06:19 10° 143° (SE) 2,298 6.1 -14.2°
Enters shadow 19:06:43 - 144° (SE) 2,448 6.2 -14.2°
